Weather History for Oroville, CA

Change the Weather History Date:

Wednesday, April 24, 2013

  Actual Average Record
Temperature  
Mean Temperature 70 °F -  
Max Temperature 90 °F 68 °F 90 °F (2013)
Min Temperature 51 °F 45 °F 35 °F (1958)
Cooling Degree Days 5    
Growing Degree Days 20 (Base 50)    
Moisture  
Dew Point 32 °F    
Average Humidity 29    
Maximum Humidity 68    
Minimum Humidity 8    
Precipitation  
Precipitation 0.00 in - - ()
Sea Level Pressure  
Sea Level Pressure 29.84 in    
Wind  
Wind Speed 7 mph (North)    
Max Wind Speed 17 mph    
Max Gust Speed 24 mph    
Visibility 10 miles    
Events      
Averages and records for this station are not official NWS values.
T = Trace of Precipitation, MM = Missing Value Source: NWS Daily Summary

Daily Weather History Graph

Daily Weather History Graph

Search for Another Location

Airport:

Trip Planner

Search our weather history database for the weather conditions in past years. The results will help you decide how hot, cold, wet, or windy it might be!

Date:

Astronomy

Apr. 24, 2013 Rise Set
Actual Time 6:16 AM PDT 7:53 PM PDT
Civil Twilight 5:47 AM PDT 8:22 PM PDT
Nautical Twilight 5:13 AM PDT 8:56 PM PDT
Astronomical Twilight 4:36 AM PDT 9:33 PM PDT
Moon 7:03 PM PDT (4/24) 5:22 AM PDT (4/24)
Length of Visible Light 14h 34m
Length of Day
13h 37m
Waxing Gibbous, 98% of the Moon is Illuminated
Apr 24
Waxing Gibbous
Apr 25
Full
May 2
Last Quarter
May 9
New
May 17
First Quarter

Hourly Weather History & Observations

Time (PDT) Temp. Dew Point Humidity Pressure Visibility Wind Dir Wind Speed Gust Speed Precip Events Conditions
12:53 AM 64.0 °F 39.0 °F 40% 29.86 in 10.0 mi East 9.2 mph - N/A   Clear
1:53 AM 60.1 °F 39.0 °F 46% 29.86 in 10.0 mi NNE 3.5 mph - N/A   Clear
3:53 AM 53.1 °F 39.9 °F 61% 29.86 in 10.0 mi NNW 4.6 mph - N/A   Clear
4:53 AM 51.1 °F 41.0 °F 68% 29.86 in 10.0 mi NW 3.5 mph - N/A   Clear
5:53 AM 53.1 °F 34.0 °F 48% 29.86 in 10.0 mi WNW 4.6 mph - N/A   Clear
6:53 AM 52.0 °F 34.0 °F 50% 29.87 in 10.0 mi NW 4.6 mph - N/A   Clear
7:53 AM 57.0 °F 37.0 °F 47% 29.88 in 10.0 mi WNW 6.9 mph - N/A   Clear
8:53 AM 66.9 °F 37.9 °F 34% 29.89 in 10.0 mi West 6.9 mph - N/A   Clear
9:53 AM 75.0 °F 34.0 °F 22% 29.88 in 10.0 mi Variable 5.8 mph - N/A   Clear
10:53 AM 82.0 °F 21.9 °F 11% 29.88 in 10.0 mi NNE 8.1 mph - N/A   Clear
11:53 AM 84.0 °F 21.0 °F 10% 29.87 in 10.0 mi NE 11.5 mph - N/A   Clear
12:53 PM 87.1 °F 21.9 °F 9% 29.85 in 10.0 mi NE 17.3 mph 21.9 mph N/A   Clear
1:53 PM 87.1 °F 19.9 °F 8% 29.83 in 10.0 mi North 8.1 mph - N/A   Clear
2:53 PM 88.0 °F 21.9 °F 9% 29.81 in 10.0 mi Variable 4.6 mph - N/A   Clear
3:53 PM 89.1 °F 21.0 °F 8% 29.78 in 10.0 mi NE 6.9 mph - N/A   Clear
4:53 PM 84.9 °F 30.9 °F 14% 29.77 in 10.0 mi WNW 12.7 mph 24.2 mph N/A   Clear
5:53 PM 84.0 °F 30.9 °F 15% 29.77 in 10.0 mi WNW 12.7 mph 23.0 mph N/A   Clear
6:53 PM 82.0 °F 30.9 °F 16% 29.77 in 10.0 mi NW 8.1 mph 19.6 mph N/A   Clear
7:53 PM 77.0 °F 32.0 °F 19% 29.79 in 10.0 mi NNW 5.8 mph - N/A   Clear
8:53 PM 73.9 °F 30.9 °F 21% 29.80 in 10.0 mi NNE 10.4 mph - N/A   Clear
9:53 PM 68.0 °F 32.0 °F 26% 29.81 in 10.0 mi North 10.4 mph - N/A   Clear
10:53 PM 70.0 °F 25.0 °F 18% 29.83 in 10.0 mi North 5.8 mph - N/A   Clear
11:53 PM 61.0 °F 48.9 °F 64% 29.86 in 10.0 mi SE 11.5 mph - N/A   Clear